User: anonymous   Login
Location: Unspecified
(0.0000°N, 0.0000°E)
Time: 09:12:33
(UTC+00:00)
Language:

Courier 1B Rocket - Orbit

View from above orbital plane
View from above orbital plane
View from above satellite
View from above satellite

Ground track
Ground track

The orbit data is extracted from the following two-line orbital elements,

1 00059U 60013B   16211.51313773  .00000114  00000-0  31006-4 0  9995
2 00059  28.2494 306.7989 0189238 256.9612 100.9744 13.52940839754802
Epoch (UTC): 29 July 2016 12:18:55
Eccentricity: 0.0189238
inclination: 28.2494°
perigee height: 920 km
apogee height: 1202 km
right ascension of ascending node: 306.7989°
argument of perigee: 256.9612°
revolutions per day: 13.52940839
mean anomaly at epoch: 100.9744°
orbit number at epoch: 75480

The dashed part of the orbit path shows where the satellite is in the earth's shadow,  

DLR